Time,TemperatureF,DewpointF,PressureIn,WindDirection,WindDirectionDegrees,WindSpeedMPH,WindSpeedGustMPH,Humidity,HourlyPrecipIn,Conditions,Clouds,dailyrainin,SoftwareType,DateUTC
2013-12-26 11:53:00,29.0,22.0,30.20,West,265,3.0,12.0,74,0.00,,,0.00,,2013-12-26 16:53:00,
2013-12-26 12:02:00,29.0,22.0,30.20,West,265,3.0,12.0,74,0.00,,,0.00,,2013-12-26 17:02:00,
2013-12-26 12:23:00,27.0,18.0,30.20,SW,219,5.0,13.0,67,0.00,,,0.00,,2013-12-26 17:23:00,
2013-12-26 12:33:00,27.0,18.0,30.20,SW,219,5.0,13.0,67,0.00,,,0.00,,2013-12-26 17:33:00,
2013-12-26 12:52:00,28.0,18.0,30.21,West,278,3.0,9.0,67,0.00,,,0.00,,2013-12-26 17:52:00,
2013-12-26 13:02:00,28.0,18.0,30.21,West,278,3.0,9.0,67,0.00,,,0.00,,2013-12-26 18:02:00,
2013-12-26 13:12:00,28.0,18.0,30.21,West,278,3.0,9.0,67,0.00,,,0.00,,2013-12-26 18:12:00,
2013-12-26 13:22:00,27.0,19.0,30.21,WSW,257,2.0,9.0,70,0.00,,,0.00,,2013-12-26 18:22:00,
2013-12-26 13:32:00,27.0,19.0,30.21,WSW,257,2.0,9.0,70,0.00,,,0.00,,2013-12-26 18:32:00,
2013-12-26 13:52:00,27.0,18.0,30.22,WSW,258,4.0,7.0,68,0.00,,,0.00,,2013-12-26 18:52:00,
2013-12-26 14:02:00,27.0,18.0,30.22,WSW,258,4.0,7.0,68,0.00,,,0.00,,2013-12-26 19:02:00,
2013-12-26 14:22:00,27.0,18.0,30.23,West,279,4.0,8.0,68,0.00,,,0.00,,2013-12-26 19:22:00,
2013-12-26 14:32:00,27.0,18.0,30.23,West,279,4.0,8.0,68,0.00,,,0.00,,2013-12-26 19:32:00,
2013-12-26 14:52:00,27.0,19.0,30.23,WSW,254,3.0,6.0,71,0.00,,,0.00,,2013-12-26 19:52:00,
2013-12-26 15:02:00,27.0,19.0,30.23,WSW,254,3.0,6.0,71,0.00,,,0.00,,2013-12-26 20:02:00,
2013-12-26 15:22:00,28.0,20.0,30.23,WNW,288,1.0,5.0,70,0.00,,,0.00,,2013-12-26 20:22:00,
2013-12-26 15:33:00,28.0,20.0,30.23,WNW,288,1.0,5.0,70,0.00,,,0.00,,2013-12-26 20:33:00,
2013-12-26 15:42:00,28.0,20.0,30.23,WNW,288,1.0,5.0,70,0.00,,,0.00,,2013-12-26 20:42:00,
2013-12-26 15:52:00,28.0,20.0,30.24,West,280,2.0,6.0,71,0.00,,,0.00,,2013-12-26 20:52:00,
2013-12-26 16:02:00,28.0,20.0,30.24,West,280,2.0,6.0,71,0.00,,,0.00,,2013-12-26 21:02:00,
2013-12-26 16:22:00,27.0,19.0,30.25,West,280,2.0,5.0,72,0.00,,,0.00,,2013-12-26 21:22:00,
2013-12-26 16:33:00,27.0,19.0,30.25,West,280,2.0,5.0,72,0.00,,,0.00,,2013-12-26 21:33:00,
2013-12-26 16:43:00,27.0,19.0,30.25,West,280,2.0,5.0,72,0.00,,,0.00,,2013-12-26 21:43:00,
2013-12-26 16:53:00,28.0,22.0,30.26,West,263,3.0,7.0,78,0.00,,,0.00,,2013-12-26 21:53:00,
2013-12-26 17:03:00,28.0,22.0,30.26,West,263,3.0,7.0,78,0.00,,,0.00,,2013-12-26 22:03:00,
2013-12-26 17:23:00,26.0,21.0,30.26,SW,219,0.0,2.0,80,0.00,,,0.00,,2013-12-26 22:23:00,
2013-12-26 17:33:00,26.0,21.0,30.26,SW,219,0.0,2.0,80,0.00,,,0.00,,2013-12-26 22:33:00,
2013-12-26 17:52:00,26.0,21.0,30.28,WSW,255,2.0,5.0,80,0.00,,,0.00,,2013-12-26 22:52:00,
2013-12-26 18:03:00,26.0,21.0,30.28,WSW,255,2.0,5.0,80,0.00,,,0.00,,2013-12-26 23:03:00,
2013-12-26 18:22:00,26.0,20.0,30.28,WSW,250,2.0,4.0,77,0.00,,,0.00,,2013-12-26 23:22:00,
2013-12-26 18:32:00,26.0,20.0,30.28,WSW,250,2.0,4.0,77,0.00,,,0.00,,2013-12-26 23:32:00,
2013-12-26 18:42:00,26.0,20.0,30.28,WSW,250,2.0,4.0,77,0.00,,,0.00,,2013-12-26 23:42:00,
2013-12-26 18:53:00,26.0,19.0,30.28,WSW,250,2.0,4.0,76,0.00,,,0.00,,2013-12-26 23:53:00,
2013-12-26 19:02:00,26.0,19.0,30.28,WSW,250,2.0,4.0,76,0.00,,,0.00,,2013-12-27 00:02:00,
2013-12-26 19:22:00,26.0,20.0,30.28,WSW,250,0.0,3.0,78,0.00,,,0.00,,2013-12-27 00:22:00,
2013-12-26 19:32:00,26.0,20.0,30.28,WSW,250,0.0,3.0,78,0.00,,,0.00,,2013-12-27 00:32:00,
2013-12-26 19:42:00,26.0,20.0,30.28,WSW,250,0.0,3.0,78,0.00,,,0.00,,2013-12-27 00:42:00,
2013-12-26 19:52:00,26.0,20.0,30.29,WSW,250,0.0,4.0,78,0.00,,,0.00,,2013-12-27 00:52:00,
2013-12-26 20:02:00,26.0,20.0,30.29,WSW,250,0.0,4.0,78,0.00,,,0.00,,2013-12-27 01:02:00,
2013-12-26 20:22:00,26.0,20.0,30.29,WSW,250,1.0,4.0,79,0.00,,,0.00,,2013-12-27 01:22:00,
2013-12-26 20:32:00,26.0,20.0,30.29,WSW,250,1.0,4.0,79,0.00,,,0.00,,2013-12-27 01:32:00,
2013-12-26 20:42:00,26.0,20.0,30.29,WSW,250,1.0,4.0,79,0.00,,,0.00,,2013-12-27 01:42:00,
2013-12-26 20:52:00,26.0,20.0,30.29,SW,220,2.0,6.0,77,0.00,,,0.00,,2013-12-27 01:52:00,
2013-12-26 21:01:00,26.0,20.0,30.29,SW,220,2.0,6.0,77,0.00,,,0.00,,2013-12-27 02:01:00,
2013-12-26 21:22:00,25.0,20.0,30.29,West,271,2.0,5.0,80,0.00,,,0.00,,2013-12-27 02:22:00,
2013-12-26 21:32:00,25.0,20.0,30.29,West,271,2.0,5.0,80,0.00,,,0.00,,2013-12-27 02:32:00,
2013-12-26 21:42:00,25.0,20.0,30.29,West,271,2.0,5.0,80,0.00,,,0.00,,2013-12-27 02:42:00,
2013-12-26 21:52:00,25.0,20.0,30.28,WSW,258,1.0,3.0,82,0.00,,,0.00,,2013-12-27 02:52:00,
2013-12-26 22:02:00,25.0,20.0,30.28,WSW,258,1.0,3.0,82,0.00,,,0.00,,2013-12-27 03:02:00,
2013-12-26 22:22:00,25.0,20.0,30.28,WSW,258,0.0,2.0,82,0.00,,,0.00,,2013-12-27 03:22:00,
2013-12-26 22:33:00,25.0,20.0,30.28,WSW,258,0.0,2.0,82,0.00,,,0.00,,2013-12-27 03:33:00,
2013-12-26 22:43:00,25.0,20.0,30.28,WSW,258,0.0,2.0,82,0.00,,,0.00,,2013-12-27 03:43:00,
2013-12-26 22:53:00,25.0,20.0,30.28,WSW,258,0.0,2.0,82,0.00,,,0.00,,2013-12-27 03:53:00,